, CA

(GMT )
Point Mugu

Weather History for KNTD - March, 2013

Change the Weather History Date:

Monday, March 4, 2013

  Actual Average Record
Temperature  
Mean Temperature 58 °F -  
Max Temperature 63 °F 61 °F 81 °F (2012)
Min Temperature 51 °F 43 °F 39 °F (2008)
Degree Days  
Heating Degree Days 8    
Growing Degree Days 8 (Base 50)    
Moisture  
Dew Point 49 °F    
Average Humidity 77    
Maximum Humidity 86    
Minimum Humidity 68    
Precipitation  
Precipitation 0.00 in - - ()
Sea Level Pressure  
Sea Level Pressure 30.08 in    
Wind  
Wind Speed 5 mph (West)    
Max Wind Speed 14 mph    
Max Gust Speed -    
Visibility 7 miles    
Events      
Averages and records for this station are not official NWS values.
T = Trace of Precipitation, MM = Missing Value Source: NWS Daily Summary

Daily Weather History Graph

Daily Weather History Graph

Search for Another Location

Airport or City:

Trip Planner

Search our weather history database for the weather conditions in past years. The results will help you decide how hot, cold, wet, or windy it might be!

Date:

Astronomy

Mar. 04, 2013 Rise Set
Actual Time 6:21 AM PST 5:55 PM PST
Civil Twilight 5:55 AM PST 6:20 PM PST
Nautical Twilight 5:26 AM PST 6:49 PM PST
Astronomical Twilight 4:57 AM PST 7:18 PM PST
Moon 12:24 AM PST (3/4) 10:53 AM PST (3/4)
Length of Visible Light 12h 24m
Length of Day
11h 34m
Waning Gibbous, 51% of the Moon is Illuminated
Mar 4
Waning Gibbous
Mar 4
Last Quarter
Mar 11
New
Mar 19
First Quarter
Mar 27
Full

Hourly Weather History & Observations

Time (PST) Temp. Dew Point Humidity Pressure Visibility Wind Dir Wind Speed Gust Speed Precip Events Conditions
12:54 AM - - N/A% 30.04 in - Calm Calm - N/A   Clear
1:54 AM - - N/A% 30.04 in - ESE 4.6 mph - N/A   Clear
2:13 AM - - N/A% 30.03 in - East 4.6 mph - N/A   Mostly Cloudy
2:54 AM - - N/A% 30.04 in - ENE 3.5 mph - N/A   Overcast
3:54 AM - - N/A% 30.05 in - North 5.8 mph - N/A   Overcast
4:54 AM - - N/A% 30.05 in - East 4.6 mph - N/A   Overcast
5:54 AM 54.0 °F 46.6 °F 76% 30.06 in 7.0 mi SSW 4.6 mph - N/A   Mostly Cloudy
6:54 AM 52.2 °F 46.0 °F 80% 30.07 in 6.0 mi North 3.5 mph - N/A   Mostly Cloudy
7:54 AM 52.5 °F 45.7 °F 78% 30.10 in 6.0 mi NE 4.6 mph - N/A   Overcast
8:54 AM 56.1 °F 49.3 °F 78% 30.11 in 5.0 mi SW 5.8 mph - N/A   Haze
9:40 AM 55.4 °F 48.2 °F 77% 30.11 in 6.0 mi SW 6.9 mph - N/A   Haze
9:54 AM 56.8 °F 48.2 °F 73% 30.11 in 6.0 mi WSW 5.8 mph - N/A   Haze
10:54 AM 57.2 °F 48.4 °F 72% 30.10 in 6.0 mi Variable 5.8 mph - N/A   Haze
11:54 AM 60.8 °F 50.7 °F 69% 30.11 in 7.0 mi WSW 6.9 mph - N/A   Partly Cloudy
12:54 PM 59.9 °F 50.7 °F 72% 30.08 in 7.0 mi WSW 9.2 mph - N/A   Partly Cloudy
1:54 PM 58.5 °F 50.2 °F 74% 30.07 in 7.0 mi West 12.7 mph - N/A   Partly Cloudy
2:54 PM 61.0 °F 50.5 °F 68% 30.06 in 7.0 mi WSW 8.1 mph - N/A   Partly Cloudy
3:54 PM 63.0 °F 52.3 °F 68% 30.05 in 7.0 mi WSW 9.2 mph - N/A   Partly Cloudy
4:54 PM 57.4 °F 50.5 °F 78% 30.06 in 7.0 mi West 13.8 mph - N/A   Partly Cloudy
5:10 PM 57.2 °F 50.0 °F 77% 30.06 in 7.0 mi West 12.7 mph - N/A   Partly Cloudy
5:54 PM 56.5 °F 50.4 °F 80% 30.07 in 7.0 mi NW 6.9 mph - N/A   Scattered Clouds
6:54 PM 55.6 °F 50.4 °F 83% 30.09 in 7.0 mi Calm Calm - N/A   Scattered Clouds
7:54 PM 55.2 °F 50.5 °F 84% 30.09 in 7.0 mi Calm Calm - N/A   Partly Cloudy
8:54 PM 54.0 °F 50.0 °F 86% 30.09 in 7.0 mi NE 5.8 mph - N/A   Partly Cloudy
9:54 PM 53.6 °F 47.8 °F 81% 30.10 in 7.0 mi Calm Calm - N/A   Clear
10:54 PM 52.5 °F 47.3 °F 82% 30.11 in 7.0 mi Calm Calm - N/A   Clear
11:54 PM 51.8 °F 46.4 °F 82% 30.11 in 7.0 mi Calm Calm - N/A   Clear